Time (hhmmss), Depth12, Depth35, dec_lat, dec_lon, EDO_knt, SSCND, SSTMP, GPS_COG, GPS_SOG, Gyro, Air_Temp, IMET_BPR, HRH, IMET_SWR, Salinity, Wnd_Dir, Wnd_Spd, 
00:00:05, 00.00, 1500, 43.618948, 13.506520, 0.00 , +32.6954, +07.4718, 026.6, 0.05, 100.5, 5.658, 999.04, 67.509, , 31.7261, 128.6, 0.6904, 
00:01:05, 00.00, 1500, 43.618951, 13.506521, 0.00 , +32.7012, +07.4682, 355.9, 0.04, 100.5, 5.646, 999.02, 67.459, , 31.7357, 129.5, 1.1235, 
00:02:04, 00.00, 1500, 43.618955, 13.506520, 0.00 , +32.7089, +07.4586, 182.9, 0.12, 100.5, 5.646, 999.06, 67.369, , 31.7527, 127.0, 0.7938, 
00:03:05, 00.00, 1500, 43.618955, 13.506520, 0.00 , +32.6948, +07.4825, 319.4, 0.02, 100.5, 5.659, 999.04, 67.910, , 31.7157, 129.2, 1.1703, 
00:04:04, 00.00, 1500, 43.618953, 13.506516, 0.00 , +32.6978, +07.4945, 000.0, 0.01, 100.5, 5.661, 999.04, 68.214, , 31.7080, 130.9, 1.0790, 
00:05:05, 00.00, 1500, 43.618958, 13.506513, 0.00 , +32.7083, +07.4533, 076.0, 0.01, 100.5, 5.661, 999.05, 68.750, , 31.7569, 130.8, 0.7470, 
00:06:04, 00.00, 1500, 43.618963, 13.506508, 0.00 , +32.7002, +07.4753, 270.0, 0.01, 100.5, 5.599, 999.01, 68.918, , 31.7281, 129.6, 1.3418, 
00:07:04, 00.00, 1500, 43.618956, 13.506511, 0.00 , +32.7064, +07.4666, 348.7, 0.05, 100.5, 5.551, 999.03, 69.102, , 31.7427, 130.8, 0.9625, 
00:08:05, 00.00, 1500, 43.618960, 13.506510, 0.00 , +32.6837, +07.4851, 322.4, 0.05, 100.5, 5.533, 999.05, 69.117, , 31.7014, 131.3, 0.6443, 
00:09:05, 00.00, 1500, 43.618953, 13.506511, 0.00 , +32.6782, +07.4887, 325.0, 0.03, 100.5, 5.458, 999.10, 69.686, , 31.6922, 129.5, 0.7116, 
00:10:04, 00.00, 1500, 43.618958, 13.506511, 0.00 , +32.7004, +07.4600, 175.6, 0.06, 100.5, 5.468, 999.10, 70.565, , 31.7423, 128.9, 0.7785, 
00:11:05, 00.00, 1500, 43.618943, 13.506525, 0.00 , +32.7001, +07.4482, 180.0, 0.01, 100.5, 5.456, 999.08, 70.615, , 31.7528, 131.7, 0.7735, 
00:12:05, 00.00, 1500, 43.618943, 13.506525, 0.00 , +32.6885, +07.4522, 315.0, 0.02, 100.5, 5.429, 999.05, 70.803, , 31.7366, 130.8, 0.5452, 
00:13:05, 00.00, 1500, 43.618945, 13.506526, 0.00 , +32.6978, +07.4611, 121.0, 0.06, 100.5, 5.467, 999.10, 70.518, , 31.7385, 130.9, 0.7996, 
00:14:05, 00.00, 1500, 43.618950, 13.506525, 0.00 , +32.6896, +07.4675, 261.9, 0.05, 100.5, 5.441, 999.13, 70.490, , 31.7238, 130.7, 0.7505, 
00:15:05, 00.00, 1500, 43.618946, 13.506523, 0.00 , +32.6807, +07.4666, 180.0, 0.02, 100.5, 5.468, 999.10, 70.784, , 31.7151, 129.4, 0.4858, 
00:16:05, 00.00, 1500, 43.618946, 13.506521, 0.00 , +32.6784, +07.4688, 270.0, 0.03, 100.5, 5.474, 999.14, 70.634, , 31.7106, 131.5, 0.3498, 
00:17:05, 00.00, 1500, 43.618943, 13.506520, 0.00 , +32.6784, +07.4551, 324.8, 0.04, 100.5, 5.488, 999.15, 70.612, , 31.7231, 130.5, 0.8251, 
00:18:04, 00.00, 1500, 43.618946, 13.506521, 0.00 , +32.6656, +07.4531, 023.2, 0.02, 100.5, 5.468, 999.14, 70.784, , 31.7112, 129.4, 0.7783, 
00:19:05, 00.00, 1500, 43.618951, 13.506520, 0.00 , +32.6673, +07.4698, 309.8, 0.04, 100.5, 5.438, 999.15, 71.384, , 31.6977, 130.0, 0.7056, 
00:20:05, 00.00, 1500, 43.618953, 13.506518, 0.00 , +32.6651, +07.4691, 000.0, 0.01, 100.5, 5.479, 999.10, 71.287, , 31.6960, 129.9, 0.8588, 
00:21:04, 00.00, 1500, 43.618963, 13.506513, 0.00 , +32.6701, +07.4504, 323.1, 0.04, 100.5, 5.493, 999.09, 71.120, , 31.7185, 130.8, 0.9701, 
00:22:04, 00.00, 1500, 43.618963, 13.506513, 0.00 , +32.6638, +07.4427, 303.7, 0.01, 100.5, 5.485, 999.10, 71.051, , 31.7188, 131.1, 1.6301, 
00:23:05, 00.00, 1500, 43.618955, 13.506520, 0.00 , +32.6628, +07.4483, 015.3, 0.04, 100.5, 5.434, 999.11, 71.409, , 31.7126, 130.3, 1.6343, 
00:24:05, 00.00, 1500, 43.618956, 13.506520, 0.00 , +32.6711, +07.4713, 258.7, 0.01, 100.4, 5.372, 999.09, 71.337, , 31.7005, 130.2, 1.8178, 
00:25:05, 00.00, 1500, 43.618951, 13.506523, 0.00 , +32.6742, +07.4703, 299.7, 0.03, 100.4, 5.345, 999.10, 71.450, , 31.7047, 130.2, 2.1760, 
00:26:05, 00.00, 1500, 43.618950, 13.506525, 0.00 , +32.6825, +07.4717, 195.9, 0.02, 100.4, 5.341, 999.08, 71.205, , 31.7124, 130.6, 1.9188, 
00:27:04, 00.00, 1500, 43.618956, 13.506518, 0.00 , +32.6805, +07.4799, 326.3, 0.01, 100.4, 5.362, 999.08, 70.117, , 31.7027, 130.5, 2.0261, 
00:28:05, 00.00, 1500, 43.618953, 13.506525, 0.00 , +32.6880, +07.4703, 191.3, 0.01, 100.4, 5.392, 999.14, 69.917, , 31.7195, 130.6, 1.6076, 
00:29:05, 00.00, 1500, 43.618951, 13.506526, 0.00 , +32.6877, +07.4789, 116.6, 0.01, 100.4, 5.390, 999.06, 69.845, , 31.7114, 130.4, 1.5450, 
00:30:05, 00.00, 1500, 43.618951, 13.506530, 0.00 , +32.6894, +07.4887, 326.3, 0.02, 100.4, 5.390, 999.09, 70.004, , 31.7042, 130.7, 1.7067, 
00:31:05, 00.00, 1500, 43.618951, 13.506539, 0.00 , +32.6860, +07.4820, 045.0, 0.03, 100.4, 5.389, 999.06, 69.636, , 31.7067, 130.7, 1.8212, 
00:32:04, 00.00, 1500, 43.618951, 13.506531, 0.00 , +32.6877, +07.4678, 180.0, 0.01, 100.4, 5.399, 999.08, 69.392, , 31.7215, 130.2, 1.5520, 
00:33:04, 00.00, 1500, 43.618948, 13.506536, 0.00 , +32.6915, +07.4675, 180.0, 0.02, 100.4, 5.422, 999.05, 69.049, , 31.7259, 130.4, 2.0303, 
00:34:04, 00.00, 1500, 43.618948, 13.506531, 0.00 , +32.6835, +07.4780, 011.3, 0.01, 100.5, 5.414, 999.04, 69.049, , 31.7077, 130.8, 1.5992, 
00:35:05, 00.00, 1500, 43.618946, 13.506531, 0.00 , +32.6706, +07.4676, 180.0, 0.02, 100.5, 5.438, 999.05, 69.145, , 31.7033, 130.5, 1.6550, 
00:36:04, 00.00, 1500, 43.618946, 13.506530, 0.00 , +32.6753, +07.4600, 000.0, 0.02, 100.5, 5.431, 999.05, 68.955, , 31.7153, 130.3, 1.3688, 
00:37:04, 00.00, 1500, 43.618951, 13.506528, 0.00 , +32.6743, +07.4744, 090.0, 0.01, 100.5, 5.441, 999.05, 69.030, , 31.7011, 130.6, 1.4661, 
00:38:04, 00.00, 1500, 43.618948, 13.506525, 0.00 , +32.6769, +07.4720, 171.9, 0.02, 100.5, 5.434, 998.99, 69.005, , 31.7061, 130.7, 1.6979, 
00:39:05, 00.00, 1500, 43.618950, 13.506528, 0.00 , +32.6758, +07.4630, 171.9, 0.04, 100.5, 5.411, 999.06, 68.563, , 31.7131, 130.4, 1.8867, 
00:40:05, 00.00, 1500, 43.618951, 13.506528, 0.00 , +32.6659, +07.4656, 155.0, 0.04, 100.5, 5.452, 999.03, 68.684, , 31.7021, 130.1, 1.1413, 
00:41:04, 00.00, 1500, 43.618951, 13.506526, 0.00 , +32.6629, +07.4761, 327.3, 0.03, 100.5, 5.444, 999.01, 68.762, , 31.6873, 130.6, 1.6633, 
00:42:05, 00.00, 1500, 43.619038, 13.506473, 0.00 , +32.6631, +07.4685, 307.9, 0.03, 100.5, 5.381, 998.96, 68.220, , 31.6944, 130.3, 2.1854, 
00:43:04, 00.00, 1500, 43.618958, 13.506521, 0.00 , +32.6695, +07.4680, 107.1, 0.05, 100.5, 5.314, 998.97, 68.177, , 31.7018, 130.7, 2.3964, 
00:44:04, 00.00, 1500, 43.618951, 13.506526, 0.00 , +32.6837, +07.4829, 000.0, 0.03, 100.5, 5.225, 998.97, 67.748, , 31.7034, 130.4, 2.5967, 
00:45:05, 00.00, 1500, 43.618950, 13.506528, 0.00 , +32.6805, +07.4991, 341.6, 0.02, 100.5, 5.147, 998.98, 67.776, , 31.6823, 130.6, 2.1288, 
00:46:04, 00.00, 1500, 43.618945, 13.506530, 0.00 , +32.6903, +07.4879, 323.1, 0.01, 100.5, 5.089, 998.96, 68.015, , 31.7059, 130.1, 1.7743, 
00:47:04, 00.00, 1500, 43.618948, 13.506531, 0.00 , +32.6906, +07.4946, 270.0, 0.01, 100.5, 5.053, 999.00, 68.301, , 31.7001, 130.6, 1.7995, 
00:48:04, 00.00, 1500, 43.618946, 13.506526, 0.00 , +32.6958, +07.4791, 308.7, 0.01, 100.5, 5.035, 998.98, 68.258, , 31.7199, 130.7, 2.0022, 
00:49:04, 00.00, 1500, 43.618946, 13.506525, 0.00 , +32.6822, +07.4704, 158.2, 0.01, 100.5, 5.011, 999.01, 68.472, , 31.7132, 130.1, 1.2533, 
00:50:05, 00.00, 1500, 43.618948, 13.506525, 0.00 , +32.6828, +07.4994, 180.0, 0.03, 100.5, 5.011, 999.03, 68.522, , 31.6874, 130.6, 1.5401, 
00:51:05, 00.00, 1500, 43.618955, 13.506521, 0.00 , +32.6882, +07.4872, 213.7, 0.02, 100.5, 4.995, 999.05, 68.927, , 31.7043, 130.3, 1.1467, 
00:52:04, 00.00, 1500, 43.618965, 13.506526, 0.00 , +32.6949, +07.4945, 090.0, 0.04, 100.5, 4.992, 999.06, 68.915, , 31.7048, 130.9, 0.8987, 
00:53:05, 00.00, 1500, 43.618966, 13.506523, 0.00 , +32.6888, +07.4769, 270.0, 0.01, 100.5, 5.023, 999.10, 69.286, , 31.7232, 130.1, 0.4939, 
00:54:05, 00.00, 1500, 43.618965, 13.506513, 0.00 , +32.6943, +07.4941, 071.6, 0.02, 100.5, 5.037, 999.07, 69.420, , 31.7046, 130.6, 1.0454, 
00:55:05, 00.00, 1500, 43.618961, 13.506511, 0.00 , +32.6970, +07.4884, 270.0, 0.10, 100.5, 5.032, 999.07, 69.330, , 31.7127, 130.4, 1.4748, 
00:56:04, 00.00, 1500, 43.618961, 13.506511, 0.00 , +32.6927, +07.4871, 257.5, 0.10, 100.5, 5.056, 999.07, 69.305, , 31.7068, 128.8, 1.4116, 
00:57:05, 00.00, 1500, 43.618968, 13.506526, 0.00 , +32.6888, +07.4922, 243.4, 0.01, 100.5, 5.070, 999.09, 69.470, , 31.7004, 129.4, 0.9397, 
00:58:05, 00.00, 1500, 43.618965, 13.506520, 0.00 , +32.6938, +07.4865, 091.8, 0.20, 100.5, 5.065, 999.13, 69.695, , 31.7110, 130.5, 1.4843, 
00:59:05, 00.00, 1500, 43.618963, 13.506535, 0.00 , +32.6945, +07.4796, 259.7, 0.09, 100.5, 5.056, 999.09, 69.454, , 31.7180, 130.5, 1.3203, 
01:00:05, 00.00, 1500, 43.618958, 13.506536, 0.00 , +32.6987, +07.5023, 357.0, 0.08, 100.5, 5.059, 999.13, 69.623, , 31.7018, 128.5, 1.2107, 
01:01:04, 00.00, 1500, 43.618956, 13.506526, 0.00 , +32.6960, +07.4866, 126.9, 0.03, 100.6, 5.059, 999.14, 69.654, , 31.7138, 130.7, 1.1246, 
01:02:05, 00.00, 1500, 43.619003, 13.506520, 0.00 , +32.7032, +07.4925, 315.0, 0.01, 100.6, 5.028, 999.10, 69.770, , 31.7156, 131.5, 1.8408, 
01:03:05, 00.00, 1500, 43.619025, 13.506513, 0.00 , +32.7013, +07.4979, 143.1, 0.01, 100.6, 5.050, 999.10, 70.183, , 31.7086, 130.2, 1.3345, 
01:04:05, 00.00, 1500, 43.618966, 13.506528, 0.00 , +32.7095, +07.4943, 225.0, 0.01, 100.6, 5.014, 999.08, 70.299, , 31.7059, 130.4, 1.9104, 
01:05:04, 00.00, 1500, 43.619206, 13.506505, 0.00 , +32.6978, +07.4980, 180.0, 0.05, 100.6, 4.995, 999.04, 70.408, , 31.7048, 130.7, 1.6334, 
01:06:05, 00.00, 1500, 43.619208, 13.506478, 0.00 , +32.7011, +07.5149, 315.0, 0.02, 100.6, 4.968, 999.02, 70.296, , 31.6929, 130.6, 1.5051, 
01:07:04, 00.00, 1500, 43.619156, 13.506491, 0.00 , +32.6971, +07.5084, 213.7, 0.01, 100.6, 4.962, 999.07, 70.161, , 31.6945, 130.4, 1.6877, 
01:08:04, 00.00, 1500, 43.619081, 13.506500, 0.00 , +32.7076, +07.5118, 180.0, 0.04, 100.6, 4.951, 999.14, 70.192, , 31.7027, 130.6, 1.5654, 
01:09:05, 00.00, 1500, 43.619133, 13.506464, 0.00 , +32.7011, +07.5083, 213.7, 0.03, 100.6, 4.941, 999.08, 70.509, , 31.6989, 130.2, 1.0038, 
01:10:04, 00.00, 1500, 43.619018, 13.506514, 0.00 , +32.7115, +07.5016, 336.8, 0.02, 100.6, 4.935, 999.08, 70.302, , 31.7162, 130.6, 1.5251, 
01:11:04, 00.00, 1500, 43.618975, 13.506475, 0.00 , +32.7071, +07.5079, 303.7, 0.01, 100.6, 4.950, 999.09, 70.386, , 31.7057, 130.9, 1.2782, 
01:12:05, 00.00, 1500, 43.618960, 13.506493, 0.00 , +32.7032, +07.4970, 180.0, 0.05, 100.6, 4.913, 999.05, 70.678, , 31.7115, 129.8, 1.4634, 
01:13:04, 00.00, 1500, 43.618958, 13.506505, 0.00 , +32.7019, +07.5354, 149.0, 0.02, 100.6, 4.916, 999.08, 70.675, , 31.6750, 130.5, 1.2797, 
01:14:05, 00.00, 1500, 43.618960, 13.506505, 0.00 , +32.7054, +07.5306, 296.6, 0.01, 100.6, 4.913, 999.07, 70.559, , 31.6832, 130.5, 1.3148, 
01:15:05, 00.00, 1500, 43.618963, 13.506511, 0.00 , +32.7058, +07.5245, 333.4, 0.02, 100.5, 4.921, 999.08, 70.314, , 31.6892, 130.7, 1.4433, 
01:16:04, 00.00, 1500, 43.618963, 13.506520, 0.00 , +32.7087, +07.5220, 308.7, 0.03, 100.5, 4.903, 999.10, 70.086, , 31.6946, 130.3, 1.5681, 
01:17:05, 00.00, 1500, 43.618956, 13.506523, 0.00 , +32.7123, +07.5352, 153.4, 0.02, 100.5, 4.886, 999.05, 69.873, , 31.6864, 130.7, 1.8498, 
01:18:04, 00.00, 1500, 43.618958, 13.506520, 0.00 , +32.7080, +07.5268, 270.0, 0.02, 100.5, 4.906, 999.07, 69.945, , 31.6894, 130.3, 1.8416, 
01:19:05, 00.00, 1500, 43.618943, 13.506523, 0.00 , +32.7103, +07.5144, 315.0, 0.04, 100.5, 4.892, 999.05, 70.142, , 31.7032, 130.0, 1.3490, 
01:20:04, 00.00, 1500, 43.618938, 13.506525, 0.00 , +32.7113, +07.5139, 090.0, 0.03, 100.5, 4.876, 999.05, 70.487, , 31.7047, 130.8, 1.6683, 
01:21:04, 00.00, 1500, 43.618938, 13.506531, 0.00 , +32.7141, +07.5191, 177.3, 0.04, 100.5, 4.865, 999.03, 70.333, , 31.7030, 130.7, 1.5293, 
01:22:05, 00.00, 1500, 43.618938, 13.506535, 0.00 , +32.7091, +07.5130, 000.0, 0.02, 100.5, 4.834, 999.05, 70.145, , 31.7032, 130.5, 1.7950, 
01:23:04, 00.00, 1500, 43.618943, 13.506536, 0.00 , +32.7143, +07.5140, 140.9, 0.06, 100.5, 4.828, 999.07, 70.095, , 31.7079, 130.3, 1.5597, 
01:24:05, 00.00, 1500, 43.618943, 13.506541, 0.00 , +32.7114, +07.5316, 341.6, 0.07, 100.5, 4.864, 999.10, 69.864, , 31.6887, 131.2, 1.7142, 
01:25:05, 00.00, 1500, 43.618950, 13.506536, 0.00 , +32.7086, +07.5192, 236.3, 0.02, 100.5, 4.843, 999.06, 69.929, , 31.6970, 130.9, 1.6064, 
01:26:04, 00.00, 1500, 43.618950, 13.506536, 0.00 , +32.7135, +07.5205, 081.9, 0.02, 100.5, 4.820, 999.09, 69.879, , 31.7011, 130.3, 2.1968, 
01:27:04, 00.00, 1500, 43.618948, 13.506533, 0.00 , +32.7127, +07.5312, 291.0, 0.03, 100.5, 4.780, 999.09, 70.452, , 31.6905, 130.7, 1.4246, 
01:28:05, 00.00, 1500, 43.618950, 13.506553, 0.00 , +32.7162, +07.5328, 090.0, 0.22, 100.5, 4.775, 999.10, 70.590, , 31.6927, 132.8, 1.8454, 
01:29:04, 00.00, 1500, 43.618946, 13.506531, 0.00 , +32.7113, +07.5059, 076.0, 0.02, 100.5, 4.768, 999.04, 69.911, , 31.7120, 130.7, 1.7784, 
01:30:04, 00.00, 1500, 43.618938, 13.506520, 0.00 , +32.7172, +07.5321, 126.9, 0.02, 100.5, 4.768, 999.11, 69.801, , 31.6945, 130.5, 2.3300, 
01:31:04, 00.00, 1500, 43.618936, 13.506521, 0.00 , +32.7140, +07.5174, 139.1, 0.04, 100.5, 4.759, 999.11, 69.823, , 31.7044, 130.4, 1.4797, 
01:32:04, 00.00, 1500, 43.618936, 13.506518, 0.00 , +32.7168, +07.5378, 300.3, 0.05, 100.5, 4.772, 999.05, 69.620, , 31.6888, 130.3, 1.8866, 
01:33:04, 00.00, 1500, 43.618943, 13.506514, 0.00 , +32.7157, +07.5302, 040.6, 0.04, 100.5, 4.789, 999.05, 69.180, , 31.6946, 129.9, 2.3475, 
01:34:05, 00.00, 1500, 43.618948, 13.506526, 0.00 , +32.7163, +07.5026, 000.0, 0.01, 100.5, 4.846, 999.07, 68.893, , 31.7204, 130.0, 1.5848, 
01:35:04, 00.00, 1500, 43.618951, 13.506521, 0.00 , +32.7132, +07.5122, 164.1, 0.03, 100.5, 4.865, 999.06, 68.921, , 31.7083, 131.0, 1.5124, 
01:36:05, 00.00, 1500, 43.618955, 13.506518, 0.00 , +32.7064, +07.5122, 229.4, 0.03, 100.5, 4.894, 999.00, 68.880, , 31.7010, 130.0, 1.7825, 
01:37:04, 00.00, 1500, 43.618950, 13.506523, 0.00 , +32.7071, +07.4714, 270.0, 0.01, 100.5, 4.906, 999.02, 68.977, , 31.7391, 130.8, 0.8893, 
01:38:05, 00.00, 1500, 43.618950, 13.506500, 0.00 , +32.7083, +07.4707, 083.4, 0.27, 100.5, 4.891, 999.02, 68.856, , 31.7410, 134.7, 1.3492, 
01:39:05, 00.00, 1500, 43.618953, 13.506525, 0.00 , +32.7082, +07.5045, 225.0, 0.01, 100.5, 4.894, 999.03, 68.510, , 31.7100, 130.3, 1.9304, 
01:40:04, 00.00, 1500, 43.618950, 13.506505, 0.00 , +32.7034, +07.5142, 319.4, 0.03, 100.5, 4.926, 999.01, 67.863, , 31.6960, 130.7, 1.4588, 
01:41:05, 00.00, 1500, 43.618945, 13.506495, 0.00 , +32.7134, +07.5356, 073.0, 0.16, 100.5, 4.927, 999.00, 67.879, , 31.6872, 131.1, 1.8975, 
01:42:04, 00.00, 1500, 43.618943, 13.506450, 0.00 , +32.7065, +07.5345, 246.8, 0.06, 100.5, 4.912, 998.99, 67.428, , 31.6808, 131.0, 2.0924, 
01:43:04, 00.00, 1500, 43.618946, 13.506486, 0.00 , +32.7113, +07.5321, 005.2, 0.07, 100.5, 4.903, 999.00, 67.407, , 31.6881, 130.6, 1.7046, 
01:44:04, 00.00, 1500, 43.618945, 13.506493, 0.00 , +32.7034, +07.5242, 310.6, 0.06, 100.5, 4.882, 999.01, 67.366, , 31.6869, 130.5, 2.3509, 
01:45:05, 00.00, 1500, 43.618941, 13.506498, 0.00 , +32.7066, +07.5140, 275.2, 0.05, 100.5, 4.871, 998.96, 67.447, , 31.6996, 130.6, 1.7889, 
01:46:05, 00.00, 1500, 43.618951, 13.506545, 0.00 , +32.7091, +07.5047, 130.6, 0.02, 100.5, 4.870, 998.97, 67.366, , 31.7108, 129.8, 1.6938, 
01:47:04, 00.00, 1500, 43.618958, 13.506548, 0.00 , +32.6991, +07.5133, 073.3, 0.02, 100.5, 4.861, 998.96, 67.258, , 31.6922, 130.7, 2.0244, 
01:48:04, 00.00, 1500, 43.618958, 13.506543, 0.00 , +32.7013, +07.4835, 262.9, 0.02, 100.5, 4.837, 998.94, 66.843, , 31.7218, 130.3, 2.2548, 
01:49:04, 00.00, 1500, 43.618953, 13.506545, 0.00 , +32.7065, +07.4969, 206.6, 0.04, 100.5, 4.877, 998.95, 66.802, , 31.7151, 129.3, 1.6918, 
01:50:04, 00.00, 1500, 43.618953, 13.506543, 0.00 , +32.6972, +07.4807, 287.1, 0.03, 100.5, 4.882, 998.96, 66.750, , 31.7199, 130.8, 1.9701, 
01:51:04, 00.00, 1500, 43.618956, 13.506533, 0.00 , +32.6968, +07.5162, 353.7, 0.02, 100.5, 4.879, 998.95, 66.536, , 31.6871, 130.2, 2.1518, 
01:52:05, 00.00, 1500, 43.618951, 13.506535, 0.00 , +32.6939, +07.4655, 243.4, 0.06, 100.5, 4.879, 998.92, 66.592, , 31.7303, 130.0, 1.4105, 
01:53:04, 00.00, 1500, 43.618940, 13.506503, 0.00 , +32.6758, +07.4512, 285.9, 0.03, 100.5, 4.900, 998.95, 66.561, , 31.7239, 131.8, 1.9030, 
01:54:04, 00.00, 1500, 43.618943, 13.506518, 0.00 , +32.6550, +07.3810, 082.6, 0.06, 100.5, 4.910, 998.95, 66.326, , 31.7658, 130.6, 2.2461, 
01:55:04, 00.00, 1500, 43.618945, 13.506526, 0.00 , +32.6228, +07.3832, 135.0, 0.03, 100.5, 4.924, 998.95, 65.998, , 31.7291, 130.5, 1.8946, 
01:56:04, 00.00, 1500, 43.618958, 13.506538, 0.00 , +32.6254, +07.4046, 346.0, 0.05, 100.5, 4.929, 998.94, 66.168, , 31.7123, 130.4, 1.6867, 
01:57:05, 00.00, 1500, 43.618963, 13.506538, 0.00 , +32.6450, +07.4244, 077.5, 0.02, 100.5, 4.944, 998.94, 66.332, , 31.7153, 130.6, 1.7448, 
01:58:05, 00.00, 1500, 43.618940, 13.506523, 0.00 , +32.6262, +07.4133, 264.3, 0.09, 100.5, 4.950, 998.93, 66.072, , 31.7052, 130.8, 2.0739, 
01:59:04, 00.00, 1500, 43.618946, 13.506528, 0.00 , +32.6247, +07.3751, 053.1, 0.05, 100.5, 4.954, 998.93, 65.652, , 31.7385, 130.8, 2.3024, 
02:00:05, 00.00, 1500, 43.618955, 13.506550, 0.00 , +32.6039, +07.3951, 263.7, 0.03, 100.5, 4.948, 998.93, 65.526, , 31.6978, 129.8, 1.9813, 
02:01:05, 00.00, 1500, 43.618946, 13.506526, 0.00 , +32.6184, +07.3913, 331.7, 0.03, 100.5, 4.944, 998.98, 65.217, , 31.7169, 130.7, 2.2622, 
02:02:05, 00.00, 1500, 43.618945, 13.506523, 0.00 , +32.6072, +07.4324, 018.4, 0.03, 100.5, 4.935, 999.00, 65.217, , 31.6673, 130.4, 1.8254, 
02:03:05, 00.00, 1500, 43.618950, 13.506535, 0.00 , +32.6056, +07.4200, 336.8, 0.03, 100.5, 4.924, 999.00, 65.239, , 31.6769, 130.7, 1.8038, 
02:04:04, 00.00, 1500, 43.618946, 13.506518, 0.00 , +32.6165, +07.3857, 342.6, 0.06, 100.5, 4.900, 998.98, 65.711, , 31.7200, 129.5, 1.4212, 
02:05:04, 00.00, 1500, 43.618950, 13.506510, 0.00 , +32.6174, +07.4049, 233.1, 0.02, 100.5, 4.877, 998.96, 65.751, , 31.7034, 130.9, 1.6872, 
02:06:05, 00.00, 1500, 43.618948, 13.506508, 0.00 , +32.6180, +07.4008, 030.7, 0.09, 100.5, 4.867, 998.98, 65.674, , 31.7078, 129.6, 1.6450, 
02:07:05, 00.00, 1500, 43.618951, 13.506513, 0.00 , +32.6186, +07.3904, 049.0, 0.09, 100.5, 4.861, 999.00, 65.409, , 31.7180, 130.4, 1.2144, 
02:08:05, 00.00, 1500, 43.618950, 13.506514, 0.00 , +32.6200, +07.3796, 178.3, 0.08, 100.5, 4.850, 999.02, 65.143, , 31.7294, 131.7, 1.6632, 
02:09:05, 00.00, 1500, 43.618945, 13.506514, 0.00 , +32.6192, +07.3698, 090.0, 0.03, 100.5, 4.874, 999.01, 64.906, , 31.7375, 131.2, 1.7669, 
02:10:04, 00.00, 1500, 43.618951, 13.506523, 0.00 , +32.6227, +07.3968, 341.6, 0.01, 100.5, 4.880, 999.02, 65.205, , 31.7165, 130.1, 1.3388, 
02:11:05, 00.00, 1500, 43.618955, 13.506528, 0.00 , +32.6229, +07.4190, 104.0, 0.03, 100.5, 4.892, 999.01, 65.473, , 31.6964, 130.2, 1.1603, 
02:12:05, 00.00, 1500, 43.618960, 13.506535, 0.00 , +32.6253, +07.4217, 021.3, 0.05, 100.5, 4.882, 999.02, 65.242, , 31.6965, 130.0, 1.6080, 
02:13:05, 00.00, 1500, 43.618955, 13.506523, 0.00 , +32.6240, +07.4057, 355.8, 0.07, 100.5, 4.870, 999.01, 65.328, , 31.7098, 130.8, 1.4922, 
02:14:04, 00.00, 1500, 43.618986, 13.506528, 0.00 , +32.6244, +07.3858, 000.0, 0.10, 100.5, 4.891, 999.01, 65.100, , 31.7284, 131.9, 1.5639, 
02:15:04, 00.00, 1500, 43.618986, 13.506518, 0.00 , +32.6238, +07.3859, 357.4, 0.09, 100.5, 4.906, 999.00, 65.032, , 31.7277, 129.2, 1.4480, 
02:16:04, 00.00, 1500, 43.618971, 13.506514, 0.00 , +32.6268, +07.4083, 203.2, 0.03, 100.5, 4.915, 999.00, 65.063, , 31.7104, 131.2, 1.2635, 
02:17:05, 00.00, 1500, 43.618963, 13.506511, 0.00 , +32.6192, +07.3964, 306.3, 0.04, 100.5, 4.922, 999.02, 65.230, , 31.7131, 129.6, 1.2135, 
02:18:04, 00.00, 1500, 43.618955, 13.506514, 0.00 , +32.6174, +07.3843, 070.3, 0.09, 100.5, 4.921, 999.03, 65.190, , 31.7222, 131.0, 1.1407, 
02:19:05, 00.00, 1500, 43.618953, 13.506513, 0.00 , +32.6203, +07.3799, 301.0, 0.04, 100.5, 4.933, 999.03, 65.162, , 31.7294, 130.4, 1.3403, 
02:20:04, 00.00, 1500, 43.618958, 13.506516, 0.00 , +32.6227, +07.3813, 058.4, 0.07, 100.5, 4.957, 998.99, 64.795, , 31.7307, 131.0, 1.3587, 
02:21:04, 00.00, 1500, 43.619013, 13.506503, 0.00 , +32.6258, +07.3624, 225.0, 0.02, 100.5, 4.966, 998.99, 64.531, , 31.7514, 131.8, 1.4207, 
02:22:05, 00.00, 1500, 43.618950, 13.506511, 0.00 , +32.6284, +07.3832, 098.1, 0.01, 100.5, 4.966, 998.99, 64.623, , 31.7351, 130.6, 1.1657, 
02:23:05, 00.00, 1500, 43.618951, 13.506505, 0.00 , +32.6254, +07.3528, 170.0, 0.04, 100.5, 4.959, 998.96, 64.845, , 31.7597, 131.2, 1.2306, 
02:24:04, 00.00, 1500, 43.618955, 13.506505, 0.00 , +32.6194, +07.3682, 270.0, 0.01, 100.5, 4.966, 998.99, 64.774, , 31.7391, 131.4, 1.2603, 
02:25:05, 00.00, 1500, 43.618950, 13.506503, 0.00 , +32.6155, +07.3684, 090.0, 0.03, 100.5, 5.019, 998.96, 64.571, , 31.7348, 131.2, 1.1896, 
02:26:04, 00.00, 1500, 43.618945, 13.506505, 0.00 , +32.6160, +07.3638, 063.4, 0.01, 100.5, 5.014, 998.98, 64.420, , 31.7395, 130.8, 1.5390, 
02:27:05, 00.00, 1500, 43.618941, 13.506510, 0.00 , +32.6130, +07.3721, 182.4, 0.05, 100.5, 5.050, 998.97, 64.183, , 31.7287, 129.3, 0.9943, 
02:28:05, 00.00, 1500, 43.618943, 13.506511, 0.00 , +32.6138, +07.3717, 344.1, 0.03, 100.5, 5.082, 998.95, 64.152, , 31.7299, 130.7, 1.3842, 
02:29:04, 00.00, 1500, 43.618943, 13.506511, 0.00 , +32.6172, +07.3622, 346.0, 0.02, 100.5, 5.091, 998.99, 64.389, , 31.7423, 130.5, 1.0051, 
02:30:04, 00.00, 1500, 43.618943, 13.506516, 0.00 , +32.6181, +07.3669, 005.4, 0.05, 100.6, 5.109, 998.97, 64.364, , 31.7358, 131.6, 1.2050, 
02:31:04, 00.00, 1500, 43.618948, 13.506520, 0.00 , +32.6149, +07.3632, 298.6, 0.02, 100.6, 5.138, 998.96, 64.100, , 31.7389, 130.2, 1.0987, 
02:32:05, 00.00, 1500, 43.618953, 13.506521, 0.00 , +32.6172, +07.3699, 329.0, 0.03, 100.6, 5.144, 998.98, 64.118, , 31.7352, 131.6, 0.7759, 
02:33:05, 00.00, 1500, 43.618951, 13.506520, 0.00 , +32.6160, +07.3886, 336.8, 0.02, 100.6, 5.147, 998.97, 64.435, , 31.7168, 130.8, 1.1491, 
02:34:04, 00.00, 1500, 43.618950, 13.506514, 0.00 , +32.6179, +07.3513, 090.0, 0.02, 100.6, 5.136, 998.99, 65.017, , 31.7530, 130.6, 1.2100, 
02:35:04, 00.00, 1500, 43.618953, 13.506511, 0.00 , +32.6213, +07.3545, 143.1, 0.03, 100.6, 5.159, 998.98, 64.601, , 31.7497, 130.4, 0.9449, 
02:36:04, 00.00, 1500, 43.618953, 13.506508, 0.00 , +32.6176, +07.3604, 338.2, 0.02, 100.6, 5.169, 998.95, 64.386, , 31.7444, 131.3, 1.3295, 
02:37:05, 00.00, 1500, 43.618955, 13.506506, 0.00 , +32.6193, +07.3616, 189.5, 0.02, 100.6, 5.162, 998.93, 64.288, , 31.7451, 130.6, 1.0454, 
02:38:04, 00.00, 1500, 43.618953, 13.506510, 0.00 , +32.6238, +07.3513, 095.7, 0.03, 100.5, 5.165, 998.92, 64.235, , 31.7618, 130.9, 1.2774, 
02:39:04, 00.00, 1500, 43.618953, 13.506508, 0.00 , +32.6305, +07.3624, 160.3, 0.05, 100.5, 5.171, 998.90, 63.848, , 31.7564, 130.2, 1.6823, 
02:40:05, 00.00, 1500, 43.618953, 13.506508, 0.00 , +32.6284, +07.3466, 320.2, 0.03, 100.5, 5.172, 998.87, 63.314, , 31.7687, 130.2, 1.7308, 
02:41:05, 00.00, 1500, 43.618951, 13.506513, 0.00 , +32.6309, +07.3766, 355.9, 0.03, 100.5, 5.184, 998.88, 63.446, , 31.7438, 130.4, 1.8405, 
02:42:04, 00.00, 1500, 43.618948, 13.506514, 0.00 , +32.6303, +07.3514, 270.0, 0.02, 100.5, 5.174, 998.80, 63.550, , 31.7663, 130.5, 1.4798, 
02:43:04, 00.00, 1500, 43.618951, 13.506511, 0.00 , +32.6276, +07.3431, 180.0, 0.07, 100.5, 5.153, 998.80, 63.541, , 31.7710, 131.5, 1.4069, 
02:44:04, 00.00, 1500, 43.618956, 13.506508, 0.00 , +32.6295, +07.3792, 012.7, 0.07, 100.5, 5.151, 998.79, 63.510, , 31.7400, 129.9, 1.4999, 
02:45:04, 00.00, 1500, 43.618955, 13.506511, 0.00 , +32.6325, +07.3699, 090.0, 0.03, 100.5, 5.193, 998.79, 63.609, , 31.7517, 130.8, 1.5332, 